Tracking 30923 objects as of 1-Jul-2025
HD Live streaming from Space Station
objects crossing your sky now

HOTBIRD 13F

Track HOTBIRD 13F now!
HOTBIRD 13F is classified as:


NORAD ID: 54048
Int'l Code: 2022-134A
Perigee: 35,785.3 km
Apogee: 35,801.4 km
Inclination: 0.1 °
Period: 1,436.1 minutes
Semi major axis: 42164 km
RCS: Unknown
Launch date: October 15, 2022
Source: ()
Launch site: AIR FORCE EASTERN TEST RANGE (AFETR)
Your satellite tracking list
STARLINK-1640
Track 1 satellite(s)




NASA's NSSDC Master Catalog

Two Line Element Set (TLE):
1 54048U 22134A   25181.85006858  .00000088  00000-0  00000-0 0  9996
2 54048   0.0640 290.0999 0001909  67.0884 240.9920  1.00273035  9852
Source of the keplerian elements: AFSPC